LRCL Weather Reports


time (UTC)temp
F
wind
direction
speed
knots
gust
knots
rain 1hr
in
rain 24hr
in
rain mn
in
humidity
%
barometer
mb
20260508023308 57 0 0.0 0.0 0.00 0.00 0.00 94 1015.0
20260508021808 57 0.9 0.0 0.00 0.00 0.00 100 1015.0
20260508020308 57 0.9 0.0 0.00 0.00 0.00 100 1015.0
20260508014808 57 70 1.7 0.0 0.00 0.00 0.00 94 1015.0
20260508013308 57 70 1.7 0.0 0.00 0.00 0.00 94 1015.0
20260508011808 57 70 2.6 0.0 0.00 0.00 0.00 94 1015.0
20260508010308 57 70 2.6 0.0 0.00 0.00 0.00 94 1015.0
20260508004808 57 80 2.6 0.0 0.00 0.00 0.00 94 1015.0
20260508003308 57 80 2.6 0.0 0.00 0.00 0.00 94 1015.0
20260508001807 57 50 1.7 0.0 0.00 0.00 0.00 94 1015.0
20260508000308 57 50 1.7 0.0 0.00 0.00 0.00 94 1015.0
20260507234809 57 0.9 0.0 0.00 0.00 0.00 100 1015.0
20260507233308 57 0.9 0.0 0.00 0.00 0.00 100 1015.0
20260507231808 57 0.9 0.0 0.00 0.00 0.00 100 1015.0
20260507230308 57 0.9 0.0 0.00 0.00 0.00 100 1015.0
20260507224808 57 0 0.0 0.0 0.00 0.00 0.00 100 1015.0
20260507223423 57 0 0.0 0.0 0.00 0.00 0.00 100 1015.0
20260507221808 57 0 0.0 0.0 0.00 0.00 0.00 100 1015.0
20260507220307 57 0 0.0 0.0 0.00 0.00 0.00 100 1015.0
20260507214808 57 80 1.7 0.0 0.00 0.00 0.00 100 1015.0
20260507213310 57 80 1.7 0.0 0.00 0.00 0.00 100 1015.0
20260507211808 59 90 2.6 0.0 0.00 0.00 0.00 94 1015.0
20260507210308 59 90 2.6 0.0 0.00 0.00 0.00 94 1015.0
20260507204808 59 130 2.6 0.0 0.00 0.00 0.00 94 1015.0
20260507203308 59 130 2.6 0.0 0.00 0.00 0.00 94 1015.0
20260507201808 61 0 0.0 0.0 0.00 0.00 0.00 83 1015.0
20260507200309 61 0 0.0 0.0 0.00 0.00 0.00 83 1015.0
20260507194814 61 0 0.0 0.0 0.00 0.00 0.00 83 1015.0
20260507193308 61 0 0.0 0.0 0.00 0.00 0.00 83 1015.0
20260507191808 61 0 0.0 0.0 0.00 0.00 0.00 83 1015.0
20260507190309 61 0 0.0 0.0 0.00 0.00 0.00 83 1015.0
20260507184810 61 0 0.0 0.0 0.00 0.00 0.00 83 1014.0
20260507183308 61 0 0.0 0.0 0.00 0.00 0.00 83 1014.0
20260507181808 63 1.7 0.0 0.00 0.00 0.00 77 1014.0
20260507180308 63 1.7 0.0 0.00 0.00 0.00 77 1014.0
20260507174807 63 330 4.3 0.0 0.00 0.00 0.00 77 1014.0
20260507173309 63 330 4.3 0.0 0.00 0.00 0.00 77 1014.0
20260507171809 64 4.3 0.0 0.00 0.00 0.00 73 1014.0
20260507170308 64 4.3 0.0 0.00 0.00 0.00 73 1014.0
20260507164808 64 340 6.1 0.0 0.00 0.00 0.00 78 1014.0
20260507163308 64 340 6.1 0.0 0.00 0.00 0.00 78 1014.0
20260507161808 66 350 6.1 0.0 0.00 0.00 0.00 73 1013.0
20260507160308 66 350 6.1 0.0 0.00 0.00 0.00 73 1013.0
20260507154808 66 310 6.1 0.0 0.00 0.00 0.00 73 1014.0
20260507153308 66 310 6.1 0.0 0.00 0.00 0.00 73 1014.0
20260507151808 66 270 5.2 0.0 0.00 0.00 0.00 73 1014.0
20260507150308 66 270 5.2 0.0 0.00 0.00 0.00 73 1014.0
20260507144808 66 250 2.6 0.0 0.00 0.00 0.00 78 1014.0
20260507143310 66 250 2.6 0.0 0.00 0.00 0.00 78 1014.0
20260507141808 64 290 6.1 0.0 0.00 0.00 0.00 78 1014.0
20260507140308 64 290 6.1 0.0 0.00 0.00 0.00 78 1014.0
20260507134808 63 280 8.7 0.0 0.00 0.00 0.00 88 1014.0
20260507133308 63 280 8.7 0.0 0.00 0.00 0.00 88 1014.0
20260507130308 70 270 5.2 0.0 0.00 0.00 0.00 57 1013.0
20260507124808 73 2.6 0.0 0.00 0.00 0.00 44 1013.0
20260507123346 73 2.6 0.0 0.00 0.00 0.00 44 1013.0
20260507121808 75 1.7 0.0 0.00 0.00 0.00 47 1014.0
20260507120308 75 1.7 0.0 0.00 0.00 0.00 47 1014.0
20260507114808 72 1.7 0.0 0.00 0.00 0.00 50 1014.0
20260507113323 72 0.9 0.0 0.00 0.00 0.00 53 1014.0
20260507111808 72 0.9 0.0 0.00 0.00 0.00 53 1014.0
20260507110308 72 0.9 0.0 0.00 0.00 0.00 53 1014.0
20260507104807 68 1.7 0.0 0.00 0.00 0.00 56 1014.0
20260507103308 68 1.7 0.0 0.00 0.00 0.00 56 1014.0
20260507101808 66 0.9 0.0 0.00 0.00 0.00 60 1014.0
20260507100308 66 0.9 0.0 0.00 0.00 0.00 60 1014.0
20260507094808 61 280 2.6 0.0 0.00 0.00 0.00 68 1015.0
20260507093308 61 280 2.6 0.0 0.00 0.00 0.00 68 1015.0
20260507091809 59 0 0.0 0.0 0.00 0.00 0.00 77 1015.0
20260507090308 59 0 0.0 0.0 0.00 0.00 0.00 77 1015.0
20260507084808 59 0 0.0 0.0 0.00 0.00 0.00 72 1015.0
20260507083308 59 0 0.0 0.0 0.00 0.00 0.00 72 1015.0
20260507081808 59 250 0.9 0.0 0.00 0.00 0.00 68 1015.0
20260507080309 59 250 0.9 0.0 0.00 0.00 0.00 68 1015.0
20260507074808 59 280 0.9 0.0 0.00 0.00 0.00 68 1015.0
20260507073308 59 280 0.9 0.0 0.00 0.00 0.00 68 1015.0
20260507071808 59 0.9 0.0 0.00 0.00 0.00 68 1014.0
20260507070308 59 0.9 0.0 0.00 0.00 0.00 68 1014.0
20260507064808 57 0 0.0 0.0 0.00 0.00 0.00 67 1014.0
20260507063308 57 0 0.0 0.0 0.00 0.00 0.00 67 1014.0
20260507061820 57 0 0.0 0.0 0.00 0.00 0.00 67 1014.0
20260507060308 57 0 0.0 0.0 0.00 0.00 0.00 67 1014.0
20260507054808 55 80 0.9 0.0 0.00 0.00 0.00 72 1014.0
20260507053315 55 80 0.9 0.0 0.00 0.00 0.00 72 1014.0
20260507051808 55 0.9 0.0 0.00 0.00 0.00 72 1014.0
20260507050308 55 0.9 0.0 0.00 0.00 0.00 72 1014.0
20260507044808 52 0 0.0 0.0 0.00 0.00 0.00 82 1014.0
20260507043308 52 0 0.0 0.0 0.00 0.00 0.00 82 1014.0
20260507041808 48 0 0.0 0.0 0.00 0.00 0.00 87 1014.0
20260507040308 48 0 0.0 0.0 0.00 0.00 0.00 87 1014.0
20260507034808 48 0.9 0.0 0.00 0.00 0.00 87 1014.0
20260507033307 48 0.9 0.0 0.00 0.00 0.00 87 1014.0
20260507031808 48 80 0.9 0.0 0.00 0.00 0.00 87 1014.0
20260507030308 48 80 0.9 0.0 0.00 0.00 0.00 87 1014.0
20260507024808 48 0 0.0 0.0 0.00 0.00 0.00 87 1013.0